Time,TemperatureF,DewpointF,PressureIn,WindDirection,WindDirectionDegrees,WindSpeedMPH,WindSpeedGustMPH,Humidity,HourlyPrecipIn,Conditions,Clouds,dailyrainin,SoftwareType,DateUTC
2013-10-05 00:02:00,52.5,50.6,29.84,East,90,11.2,14.5,93,0.10,CLR,CLR,0.10,WeatherDisplay:10.37,2013-10-05 05:02:00,
2013-10-05 00:07:00,52.5,50.6,29.85,ESE,112,12.9,18.4,93,0.10,CLR,CLR,0.10,WeatherDisplay:10.37,2013-10-05 05:07:00,
2013-10-05 00:12:00,52.5,50.6,29.86,ESE,112,15.1,23.0,93,0.10,CLR,CLR,0.10,WeatherDisplay:10.37,2013-10-05 05:12:00,
2013-10-05 00:17:00,52.5,50.6,29.86,East,90,14.0,18.4,93,0.04,CLR,CLR,0.10,WeatherDisplay:10.37,2013-10-05 05:17:00,
2013-10-05 00:22:00,52.7,50.7,29.85,ENE,68,12.3,16.1,93,0.02,CLR,CLR,0.10,WeatherDisplay:10.37,2013-10-05 05:22:00,
2013-10-05 00:27:00,52.7,50.7,29.84,East,90,11.2,13.8,93,0.04,RA,RA,0.12,WeatherDisplay:10.37,2013-10-05 05:27:00,
2013-10-05 00:32:00,52.5,50.6,29.82,ENE,68,10.9,18.4,93,0.06,RA,RA,0.14,WeatherDisplay:10.37,2013-10-05 05:32:00,
2013-10-05 00:37:00,52.5,50.6,29.80,ENE,68,8.1,9.2,93,0.08,RA,RA,0.18,WeatherDisplay:10.37,2013-10-05 05:37:00,
2013-10-05 00:42:00,52.5,50.6,29.83,NE,45,4.8,8.1,93,0.10,RA,RA,0.18,WeatherDisplay:10.37,2013-10-05 05:42:00,
2013-10-05 00:47:00,52.3,50.4,29.83,ENE,68,7.0,13.8,93,0.08,RA,RA,0.18,WeatherDisplay:10.37,2013-10-05 05:47:00,
2013-10-05 00:52:00,52.3,50.4,29.84,NE,45,4.4,8.1,93,0.08,CLR,CLR,0.18,WeatherDisplay:10.37,2013-10-05 05:52:00,
2013-10-05 00:57:00,52.3,50.4,29.83,ESE,112,5.8,11.5,93,0.08,CLR,CLR,0.18,WeatherDisplay:10.37,2013-10-05 05:57:00,
2013-10-05 01:02:00,52.3,50.4,29.83,ESE,112,5.5,13.4,93,0.08,CLR,CLR,0.18,WeatherDisplay:10.37,2013-10-05 06:02:00,
2013-10-05 01:07:00,52.3,50.4,29.83,NE,45,7.6,9.2,93,0.08,CLR,CLR,0.18,WeatherDisplay:10.37,2013-10-05 06:07:00,
2013-10-05 01:12:00,52.3,50.4,29.83,ENE,68,5.9,11.5,93,0.08,CLR,CLR,0.18,WeatherDisplay:10.37,2013-10-05 06:12:00,
2013-10-05 01:17:00,52.3,50.4,29.84,East,90,6.9,9.2,93,0.08,CLR,CLR,0.18,WeatherDisplay:10.37,2013-10-05 06:17:00,
2013-10-05 01:22:00,52.3,50.4,29.83,NE,45,8.4,10.4,93,0.08,CLR,CLR,0.18,WeatherDisplay:10.37,2013-10-05 06:22:00,
2013-10-05 01:27:00,52.3,50.4,29.82,ENE,68,10.6,17.3,93,0.06,CLR,CLR,0.18,WeatherDisplay:10.37,2013-10-05 06:27:00,
2013-10-05 01:32:00,52.3,50.4,29.82,East,90,10.6,12.7,93,0.04,CLR,CLR,0.18,WeatherDisplay:10.37,2013-10-05 06:32:00,
2013-10-05 01:37:00,52.5,50.6,29.82,East,90,8.6,11.5,93,0.02,CLR,CLR,0.18,WeatherDisplay:10.37,2013-10-05 06:37:00,
2013-10-05 01:42:00,52.5,50.6,29.83,ENE,68,8.7,16.5,93,0.00,CLR,CLR,0.18,WeatherDisplay:10.37,2013-10-05 06:42:00,
2013-10-05 01:47:00,52.5,50.6,29.83,NW,315,7.4,8.1,93,0.00,CLR,CLR,0.18,WeatherDisplay:10.37,2013-10-05 06:47:00,
2013-10-05 01:52:00,52.7,50.7,29.82,ENE,68,6.3,10.4,93,0.00,CLR,CLR,0.18,WeatherDisplay:10.37,2013-10-05 06:52:00,
2013-10-05 01:57:00,52.7,50.7,29.83,East,90,7.3,9.2,93,0.00,CLR,CLR,0.18,WeatherDisplay:10.37,2013-10-05 06:57:00,
2013-10-05 02:02:00,52.9,50.9,29.82,ENE,68,8.9,12.7,93,0.00,CLR,CLR,0.18,WeatherDisplay:10.37,2013-10-05 07:02:00,
2013-10-05 02:07:00,52.9,50.9,29.82,East,90,4.8,5.8,93,0.00,CLR,CLR,0.18,WeatherDisplay:10.37,2013-10-05 07:07:00,
2013-10-05 02:12:00,52.9,50.6,29.82,ENE,68,4.8,9.2,92,0.00,CLR,CLR,0.18,WeatherDisplay:10.37,2013-10-05 07:12:00,
2013-10-05 02:17:00,52.9,50.6,29.82,NNE,22,5.7,10.4,92,0.00,CLR,CLR,0.18,WeatherDisplay:10.37,2013-10-05 07:17:00,
2013-10-05 02:22:00,52.9,50.6,29.81,ENE,68,7.1,10.4,92,0.00,CLR,CLR,0.18,WeatherDisplay:10.37,2013-10-05 07:22:00,
2013-10-05 02:27:00,52.9,50.6,29.82,NNE,22,5.5,9.2,92,0.00,CLR,CLR,0.18,WeatherDisplay:10.37,2013-10-05 07:27:00,
2013-10-05 02:32:00,52.9,50.6,29.82,ESE,112,7.9,10.4,92,0.00,CLR,CLR,0.18,WeatherDisplay:10.37,2013-10-05 07:32:00,
2013-10-05 02:37:00,53.1,50.8,29.82,NNE,22,6.4,9.2,92,0.00,CLR,CLR,0.18,WeatherDisplay:10.37,2013-10-05 07:37:00,
2013-10-05 02:42:00,53.2,51.0,29.82,ESE,112,11.2,16.8,92,0.00,CLR,CLR,0.18,WeatherDisplay:10.37,2013-10-05 07:42:00,
2013-10-05 02:47:00,53.2,51.0,29.82,ESE,112,6.2,9.2,92,0.00,CLR,CLR,0.18,WeatherDisplay:10.37,2013-10-05 07:47:00,
2013-10-05 02:52:00,53.2,51.0,29.82,ENE,68,8.7,9.2,92,0.00,CLR,CLR,0.18,WeatherDisplay:10.37,2013-10-05 07:52:00,
2013-10-05 02:57:00,53.2,51.0,29.82,NE,45,7.3,13.8,92,0.00,CLR,CLR,0.18,WeatherDisplay:10.37,2013-10-05 07:57:00,
2013-10-05 03:02:00,53.2,51.0,29.82,NE,45,8.2,15.0,92,0.00,CLR,CLR,0.18,WeatherDisplay:10.37,2013-10-05 08:02:00,
2013-10-05 03:07:00,53.2,51.0,29.81,NE,45,4.5,9.2,92,0.00,CLR,CLR,0.18,WeatherDisplay:10.37,2013-10-05 08:07:00,
2013-10-05 03:12:00,53.1,50.8,29.81,NNE,22,5.4,8.1,92,0.00,CLR,CLR,0.18,WeatherDisplay:10.37,2013-10-05 08:12:00,
2013-10-05 03:17:00,52.9,50.6,29.81,ESE,112,4.1,9.2,92,0.00,CLR,CLR,0.18,WeatherDisplay:10.37,2013-10-05 08:17:00,
2013-10-05 03:22:00,52.9,50.6,29.81,East,90,6.4,10.4,92,0.00,CLR,CLR,0.18,WeatherDisplay:10.37,2013-10-05 08:22:00,
2013-10-05 03:27:00,52.9,50.6,29.82,East,90,6.3,11.5,92,0.00,CLR,CLR,0.18,WeatherDisplay:10.37,2013-10-05 08:27:00,
2013-10-05 03:32:00,52.9,50.6,29.80,East,90,4.6,6.9,92,0.00,CLR,CLR,0.18,WeatherDisplay:10.37,2013-10-05 08:32:00,
2013-10-05 03:37:00,52.7,50.4,29.80,ENE,68,9.7,13.8,92,0.00,CLR,CLR,0.18,WeatherDisplay:10.37,2013-10-05 08:37:00,
2013-10-05 03:42:00,52.5,50.3,29.80,NE,45,9.3,13.8,92,0.00,CLR,CLR,0.18,WeatherDisplay:10.37,2013-10-05 08:42:00,
2013-10-05 03:47:00,52.5,50.6,29.81,NE,45,5.1,8.1,93,0.00,CLR,CLR,0.18,WeatherDisplay:10.37,2013-10-05 08:47:00,
2013-10-05 03:52:00,52.5,50.6,29.81,ESE,112,8.6,12.7,93,0.00,CLR,CLR,0.18,WeatherDisplay:10.37,2013-10-05 08:52:00,
2013-10-05 03:57:00,52.5,50.3,29.81,ESE,112,10.8,13.8,92,0.00,CLR,CLR,0.18,WeatherDisplay:10.37,2013-10-05 08:57:00,
2013-10-05 04:02:00,52.3,50.1,29.79,North,0,7.1,15.0,92,0.00,CLR,CLR,0.18,WeatherDisplay:10.37,2013-10-05 09:02:00,
2013-10-05 04:07:00,52.3,50.4,29.79,East,90,8.1,9.2,93,0.00,CLR,CLR,0.18,WeatherDisplay:10.37,2013-10-05 09:07:00,
2013-10-05 04:13:00,52.3,50.4,29.79,ESE,112,7.0,10.3,93,0.00,CLR,CLR,0.18,WeatherDisplay:10.37,2013-10-05 09:13:00,
2013-10-05 04:18:00,52.2,50.2,29.79,ENE,68,6.3,11.5,93,0.00,CLR,CLR,0.18,WeatherDisplay:10.37,2013-10-05 09:18:00,
2013-10-05 04:23:00,52.2,50.2,29.79,NNE,22,8.0,11.5,93,0.00,CLR,CLR,0.18,WeatherDisplay:10.37,2013-10-05 09:23:00,
2013-10-05 04:28:00,52.2,50.2,29.79,NE,45,6.8,6.8,93,0.00,CLR,CLR,0.18,WeatherDisplay:10.37,2013-10-05 09:28:00,
2013-10-05 04:33:00,52.2,50.2,29.79,East,90,10.4,12.7,93,0.00,CLR,CLR,0.18,WeatherDisplay:10.37,2013-10-05 09:33:00,
2013-10-05 04:38:00,52.2,50.2,29.80,East,90,7.0,10.4,93,0.00,CLR,CLR,0.18,WeatherDisplay:10.37,2013-10-05 09:38:00,
2013-10-05 04:43:00,52.2,50.2,29.80,ENE,68,10.7,13.8,93,0.00,CLR,CLR,0.18,WeatherDisplay:10.37,2013-10-05 09:43:00,
2013-10-05 04:48:00,52.2,50.2,29.80,ENE,68,10.0,11.5,93,0.00,CLR,CLR,0.18,WeatherDisplay:10.37,2013-10-05 09:48:00,
2013-10-05 04:53:00,52.2,50.2,29.80,NE,45,9.1,11.5,93,0.00,CLR,CLR,0.18,WeatherDisplay:10.37,2013-10-05 09:53:00,
2013-10-05 04:58:00,52.2,50.2,29.79,ENE,68,8.2,11.5,93,0.00,CLR,CLR,0.18,WeatherDisplay:10.37,2013-10-05 09:58:00,
2013-10-05 05:03:00,52.2,50.2,29.79,East,90,7.3,12.7,93,0.00,CLR,CLR,0.18,WeatherDisplay:10.37,2013-10-05 10:03:00,
2013-10-05 05:08:00,52.2,50.2,29.80,ESE,112,6.3,8.9,93,0.00,CLR,CLR,0.18,WeatherDisplay:10.37,2013-10-05 10:08:00,
2013-10-05 05:13:00,52.2,50.2,29.81,ESE,112,4.8,7.6,93,0.00,CLR,CLR,0.18,WeatherDisplay:10.37,2013-10-05 10:13:00,
2013-10-05 05:18:00,52.2,50.2,29.80,ENE,68,7.6,11.5,93,0.00,CLR,CLR,0.18,WeatherDisplay:10.37,2013-10-05 10:18:00,
2013-10-05 05:23:00,52.2,50.2,29.79,ESE,112,6.8,13.8,93,0.00,CLR,CLR,0.18,WeatherDisplay:10.37,2013-10-05 10:23:00,
2013-10-05 05:28:00,52.2,50.2,29.80,East,90,11.4,13.8,93,0.00,CLR,CLR,0.18,WeatherDisplay:10.37,2013-10-05 10:28:00,
2013-10-05 05:33:00,52.2,50.2,29.80,ENE,68,5.7,8.1,93,0.02,RA,RA,0.20,WeatherDisplay:10.37,2013-10-05 10:33:00,
2013-10-05 05:38:00,52.2,50.2,29.80,East,90,8.2,12.7,93,0.02,RA,RA,0.20,WeatherDisplay:10.37,2013-10-05 10:38:00,
2013-10-05 05:43:00,52.2,50.2,29.80,East,90,10.3,11.2,93,0.02,CLR,CLR,0.20,WeatherDisplay:10.37,2013-10-05 10:43:00,
2013-10-05 05:48:00,52.2,50.2,29.80,East,90,6.8,9.2,93,0.02,CLR,CLR,0.20,WeatherDisplay:10.37,2013-10-05 10:48:00,
2013-10-05 05:53:00,52.0,50.0,29.79,ESE,112,8.0,9.2,93,0.02,CLR,CLR,0.20,WeatherDisplay:10.37,2013-10-05 10:53:00,
2013-10-05 05:58:00,52.0,50.0,29.79,East,90,12.1,17.3,93,0.02,CLR,CLR,0.20,WeatherDisplay:10.37,2013-10-05 10:58:00,
2013-10-05 06:03:00,52.0,50.0,29.80,ENE,68,7.8,11.5,93,0.02,CLR,CLR,0.20,WeatherDisplay:10.37,2013-10-05 11:03:00,
2013-10-05 06:08:00,52.0,50.0,29.79,East,90,9.9,12.5,93,0.02,CLR,CLR,0.20,WeatherDisplay:10.37,2013-10-05 11:08:00,
2013-10-05 06:13:00,52.0,50.0,29.80,East,90,9.3,11.5,93,0.02,CLR,CLR,0.20,WeatherDisplay:10.37,2013-10-05 11:13:00,
2013-10-05 06:18:00,52.0,50.0,29.79,East,90,10.7,15.0,93,0.02,CLR,CLR,0.20,WeatherDisplay:10.37,2013-10-05 11:18:00,
2013-10-05 06:23:00,51.8,49.8,29.79,NE,45,10.5,13.8,93,0.02,CLR,CLR,0.20,WeatherDisplay:10.37,2013-10-05 11:23:00,
2013-10-05 06:28:00,51.8,49.8,29.79,NE,45,10.1,12.7,93,0.02,CLR,CLR,0.20,WeatherDisplay:10.37,2013-10-05 11:28:00,
2013-10-05 06:33:00,51.6,49.7,29.79,East,90,9.1,13.8,93,0.00,CLR,CLR,0.20,WeatherDisplay:10.37,2013-10-05 11:33:00,
2013-10-05 06:38:00,51.6,49.7,29.79,East,90,7.8,16.1,93,0.00,CLR,CLR,0.20,WeatherDisplay:10.37,2013-10-05 11:38:00,
2013-10-05 06:43:00,51.6,49.7,29.79,ESE,112,10.4,12.7,93,0.00,CLR,CLR,0.20,WeatherDisplay:10.37,2013-10-05 11:43:00,
2013-10-05 06:48:00,51.8,49.8,29.79,NE,45,11.0,16.1,93,0.00,CLR,CLR,0.20,WeatherDisplay:10.37,2013-10-05 11:48:00,
2013-10-05 06:53:00,51.6,49.7,29.79,East,90,6.9,12.7,93,0.00,CLR,CLR,0.20,WeatherDisplay:10.37,2013-10-05 11:53:00,
2013-10-05 06:58:00,51.6,49.7,29.79,East,90,7.1,13.8,93,0.00,CLR,CLR,0.20,WeatherDisplay:10.37,2013-10-05 11:58:00,
2013-10-05 07:03:00,51.6,49.7,29.79,East,90,9.0,10.4,93,0.00,CLR,CLR,0.20,WeatherDisplay:10.37,2013-10-05 12:03:00,
2013-10-05 07:08:00,51.6,49.7,29.78,ESE,112,8.8,16.1,93,0.00,CLR,CLR,0.20,WeatherDisplay:10.37,2013-10-05 12:08:00,
2013-10-05 07:13:00,51.6,49.7,29.78,ENE,68,8.5,11.5,93,0.00,CLR,CLR,0.20,WeatherDisplay:10.37,2013-10-05 12:13:00,
2013-10-05 07:18:00,51.6,49.7,29.78,East,90,10.5,16.3,93,0.00,CLR,CLR,0.20,WeatherDisplay:10.37,2013-10-05 12:18:00,
2013-10-05 07:23:00,51.6,49.7,29.78,ENE,68,11.6,11.6,93,0.00,CLR,CLR,0.20,WeatherDisplay:10.37,2013-10-05 12:23:00,
2013-10-05 07:28:00,51.6,49.7,29.78,East,90,7.6,10.4,93,0.00,CLR,CLR,0.20,WeatherDisplay:10.37,2013-10-05 12:28:00,
2013-10-05 07:33:00,51.8,49.8,29.77,ESE,112,9.3,11.5,93,0.00,CLR,CLR,0.20,WeatherDisplay:10.37,2013-10-05 12:33:00,
2013-10-05 07:38:00,51.8,49.8,29.77,ESE,112,11.0,12.7,93,0.00,CLR,CLR,0.20,WeatherDisplay:10.37,2013-10-05 12:38:00,
2013-10-05 07:43:00,52.0,50.3,29.77,East,90,7.2,12.7,94,0.00,CLR,CLR,0.20,WeatherDisplay:10.37,2013-10-05 12:43:00,
2013-10-05 07:48:00,52.0,50.0,29.77,East,90,8.9,9.6,93,0.00,CLR,CLR,0.20,WeatherDisplay:10.37,2013-10-05 12:48:00,
2013-10-05 07:53:00,52.0,50.0,29.78,NE,45,10.7,16.1,93,0.00,CLR,CLR,0.20,WeatherDisplay:10.37,2013-10-05 12:53:00,
2013-10-05 07:58:00,52.0,50.0,29.79,ESE,112,10.1,12.7,93,0.00,CLR,CLR,0.20,WeatherDisplay:10.37,2013-10-05 12:58:00,
2013-10-05 08:03:00,52.2,50.2,29.79,East,90,6.9,10.4,93,0.00,CLR,CLR,0.20,WeatherDisplay:10.37,2013-10-05 13:03:00,
2013-10-05 08:08:00,52.2,50.2,29.79,ESE,112,10.9,15.0,93,0.00,CLR,CLR,0.20,WeatherDisplay:10.37,2013-10-05 13:08:00,
2013-10-05 08:13:00,52.2,50.5,29.79,East,90,10.7,12.7,94,0.00,CLR,CLR,0.20,WeatherDisplay:10.37,2013-10-05 13:13:00,
2013-10-05 08:18:00,52.3,50.7,29.79,ENE,68,7.0,9.2,94,0.00,CLR,CLR,0.20,WeatherDisplay:10.37,2013-10-05 13:18:00,
2013-10-05 08:23:00,52.3,50.7,29.79,East,90,14.3,17.3,94,0.00,CLR,CLR,0.20,WeatherDisplay:10.37,2013-10-05 13:23:00,
2013-10-05 08:28:00,52.3,50.7,29.79,NE,45,9.2,11.5,94,0.00,CLR,CLR,0.20,WeatherDisplay:10.37,2013-10-05 13:28:00,
2013-10-05 08:33:00,52.5,50.8,29.79,East,90,9.1,10.4,94,0.00,CLR,CLR,0.20,WeatherDisplay:10.37,2013-10-05 13:33:00,
2013-10-05 08:38:00,52.5,50.8,29.79,ESE,112,12.1,12.7,94,0.00,CLR,CLR,0.20,WeatherDisplay:10.37,2013-10-05 13:38:00,
2013-10-05 08:43:00,52.5,50.8,29.79,ESE,112,9.6,10.4,94,0.00,CLR,CLR,0.20,WeatherDisplay:10.37,2013-10-05 13:43:00,
2013-10-05 08:48:00,52.5,50.8,29.79,East,90,7.5,9.2,94,0.00,CLR,CLR,0.20,WeatherDisplay:10.37,2013-10-05 13:48:00,
2013-10-05 08:53:00,52.5,50.8,29.80,ESE,112,8.4,9.2,94,0.00,CLR,CLR,0.20,WeatherDisplay:10.37,2013-10-05 13:53:00,
2013-10-05 08:58:00,52.9,51.2,29.80,East,90,8.1,12.7,94,0.00,CLR,CLR,0.20,WeatherDisplay:10.37,2013-10-05 13:58:00,
2013-10-05 09:03:00,52.9,51.2,29.81,ESE,112,11.1,12.7,94,0.00,CLR,CLR,0.20,WeatherDisplay:10.37,2013-10-05 14:03:00,
2013-10-05 09:08:00,52.9,51.2,29.81,ESE,112,7.4,9.2,94,0.00,CLR,CLR,0.20,WeatherDisplay:10.37,2013-10-05 14:08:00,
2013-10-05 09:13:00,53.2,51.6,29.81,East,90,9.2,12.7,94,0.00,CLR,CLR,0.20,WeatherDisplay:10.37,2013-10-05 14:13:00,
2013-10-05 09:18:00,53.4,51.7,29.80,ENE,68,7.0,11.6,94,0.00,CLR,CLR,0.20,WeatherDisplay:10.37,2013-10-05 14:18:00,
2013-10-05 09:23:00,53.4,51.7,29.80,ESE,112,6.2,10.4,94,0.00,CLR,CLR,0.20,WeatherDisplay:10.37,2013-10-05 14:23:00,
2013-10-05 09:28:00,53.8,51.8,29.80,ESE,112,9.1,11.5,93,0.00,CLR,CLR,0.20,WeatherDisplay:10.37,2013-10-05 14:28:00,
2013-10-05 09:33:00,53.8,51.8,29.80,ESE,112,5.9,9.2,93,0.00,CLR,CLR,0.20,WeatherDisplay:10.37,2013-10-05 14:33:00,
2013-10-05 09:38:00,54.0,52.0,29.80,ENE,68,5.6,6.9,93,0.00,CLR,CLR,0.20,WeatherDisplay:10.37,2013-10-05 14:38:00,
2013-10-05 09:43:00,53.8,51.8,29.81,ESE,112,5.4,6.9,93,0.00,CLR,CLR,0.20,WeatherDisplay:10.37,2013-10-05 14:43:00,
2013-10-05 09:48:00,54.0,52.0,29.81,SE,135,7.9,11.6,93,0.00,CLR,CLR,0.20,WeatherDisplay:10.37,2013-10-05 14:48:00,
2013-10-05 09:53:00,54.1,52.2,29.81,ESE,112,5.9,10.4,93,0.00,CLR,CLR,0.20,WeatherDisplay:10.37,2013-10-05 14:53:00,
2013-10-05 09:58:00,54.1,52.2,29.82,SE,135,6.3,8.1,93,0.00,CLR,CLR,0.20,WeatherDisplay:10.37,2013-10-05 14:58:00,
2013-10-05 10:03:00,54.1,52.2,29.82,SSE,158,8.1,11.5,93,0.00,CLR,CLR,0.20,WeatherDisplay:10.37,2013-10-05 15:03:00,
2013-10-05 10:08:00,54.1,51.9,29.82,South,180,4.2,5.8,92,0.00,CLR,CLR,0.20,WeatherDisplay:10.37,2013-10-05 15:08:00,
2013-10-05 10:13:00,53.8,51.5,29.82,South,180,3.7,6.9,92,0.00,CLR,CLR,0.20,WeatherDisplay:10.37,2013-10-05 15:13:00,
2013-10-05 10:18:00,53.4,50.9,29.81,South,180,1.8,3.5,91,0.00,CLR,CLR,0.20,WeatherDisplay:10.37,2013-10-05 15:18:00,
2013-10-05 10:23:00,53.2,50.7,29.81,SSE,158,3.9,4.6,91,0.00,CLR,CLR,0.20,WeatherDisplay:10.37,2013-10-05 15:23:00,
2013-10-05 10:28:00,53.4,50.9,29.81,South,180,3.7,4.6,91,0.00,CLR,CLR,0.20,WeatherDisplay:10.37,2013-10-05 15:28:00,
2013-10-05 10:33:00,53.4,50.6,29.81,SSE,158,1.8,3.5,90,0.00,CLR,CLR,0.20,WeatherDisplay:10.37,2013-10-05 15:33:00,
2013-10-05 10:38:00,53.4,50.6,29.80,ESE,112,1.0,3.5,90,0.00,CLR,CLR,0.20,WeatherDisplay:10.37,2013-10-05 15:38:00,
2013-10-05 10:43:00,53.8,50.9,29.80,SE,135,3.1,3.5,90,0.00,CLR,CLR,0.20,WeatherDisplay:10.37,2013-10-05 15:43:00,
2013-10-05 10:48:00,54.1,51.3,29.80,SE,135,2.2,3.5,90,0.00,CLR,CLR,0.20,WeatherDisplay:10.37,2013-10-05 15:48:00,
2013-10-05 10:53:00,54.3,51.4,29.80,ESE,112,4.1,5.8,90,0.00,CLR,CLR,0.20,WeatherDisplay:10.37,2013-10-05 15:53:00,
2013-10-05 10:58:00,54.5,51.3,29.80,SE,135,4.1,6.3,89,0.00,CLR,CLR,0.20,WeatherDisplay:10.37,2013-10-05 15:58:00,
2013-10-05 11:03:00,54.7,51.5,29.80,East,90,2.4,3.5,89,0.00,CLR,CLR,0.20,WeatherDisplay:10.37,2013-10-05 16:03:00,
2013-10-05 11:08:00,54.7,51.5,29.80,SSE,158,2.8,4.0,89,0.00,CLR,CLR,0.20,WeatherDisplay:10.37,2013-10-05 16:08:00,
2013-10-05 11:13:00,54.7,51.2,29.80,SE,135,2.3,3.5,88,0.00,CLR,CLR,0.20,WeatherDisplay:10.37,2013-10-05 16:13:00,
2013-10-05 11:18:00,54.7,51.2,29.81,SE,135,3.4,4.6,88,0.00,CLR,CLR,0.20,WeatherDisplay:10.37,2013-10-05 16:18:00,
2013-10-05 11:23:00,54.7,51.2,29.81,SSE,158,1.4,3.5,88,0.00,CLR,CLR,0.20,WeatherDisplay:10.37,2013-10-05 16:23:00,
2013-10-05 11:28:00,54.7,51.2,29.81,SSE,158,2.8,3.5,88,0.00,CLR,CLR,0.20,WeatherDisplay:10.37,2013-10-05 16:28:00,
2013-10-05 11:33:00,54.7,51.2,29.81,SE,135,1.8,3.5,88,0.00,CLR,CLR,0.20,WeatherDisplay:10.37,2013-10-05 16:33:00,
2013-10-05 11:38:00,54.7,51.2,29.81,ESE,112,4.4,4.6,88,0.00,CLR,CLR,0.20,WeatherDisplay:10.37,2013-10-05 16:38:00,
2013-10-05 11:43:00,55.0,51.2,29.81,SE,135,5.8,7.2,87,0.00,CLR,CLR,0.20,WeatherDisplay:10.37,2013-10-05 16:43:00,
2013-10-05 11:48:00,55.2,51.7,29.81,ESE,112,3.4,5.8,88,0.00,CLR,CLR,0.20,WeatherDisplay:10.37,2013-10-05 16:48:00,
2013-10-05 11:53:00,55.9,52.1,29.81,SSE,158,3.7,5.8,87,0.00,CLR,CLR,0.20,WeatherDisplay:10.37,2013-10-05 16:53:00,
2013-10-05 11:58:00,56.5,52.3,29.80,SE,135,4.9,5.8,86,0.00,CLR,CLR,0.20,WeatherDisplay:10.37,2013-10-05 16:58:00,
2013-10-05 12:03:00,57.0,52.6,29.80,SE,135,2.8,4.5,85,0.00,CLR,CLR,0.20,WeatherDisplay:10.37,2013-10-05 17:03:00,
2013-10-05 12:08:00,57.4,52.6,29.81,South,180,7.1,8.1,84,0.00,CLR,CLR,0.20,WeatherDisplay:10.37,2013-10-05 17:08:00,
2013-10-05 12:13:00,57.0,51.6,29.81,SSE,158,4.2,5.8,82,0.00,CLR,CLR,0.20,WeatherDisplay:10.37,2013-10-05 17:13:00,
2013-10-05 12:18:00,56.8,51.7,29.81,ESE,112,1.9,3.5,83,0.00,CLR,CLR,0.20,WeatherDisplay:10.37,2013-10-05 17:18:00,
2013-10-05 12:23:00,57.0,52.2,29.81,SSE,158,3.0,4.9,84,0.00,CLR,CLR,0.20,WeatherDisplay:10.37,2013-10-05 17:23:00,
2013-10-05 12:28:00,57.0,52.2,29.81,SE,135,3.0,3.5,84,0.00,CLR,CLR,0.20,WeatherDisplay:10.37,2013-10-05 17:28:00,
2013-10-05 12:33:00,57.2,52.4,29.80,SE,135,1.2,3.5,84,0.00,CLR,CLR,0.20,WeatherDisplay:10.37,2013-10-05 17:33:00,
2013-10-05 12:38:00,57.4,52.3,29.80,South,180,2.8,3.5,83,0.00,CLR,CLR,0.20,WeatherDisplay:10.37,2013-10-05 17:38:00,
2013-10-05 12:43:00,57.4,52.3,29.80,SE,135,3.2,3.5,83,0.00,CLR,CLR,0.20,WeatherDisplay:10.37,2013-10-05 17:43:00,
2013-10-05 12:48:00,57.6,52.4,29.80,SSE,158,3.7,4.6,83,0.00,CLR,CLR,0.20,WeatherDisplay:10.37,2013-10-05 17:48:00,
2013-10-05 12:53:00,57.4,51.9,29.80,SSW,202,1.8,2.5,82,0.00,CLR,CLR,0.20,WeatherDisplay:10.37,2013-10-05 17:53:00,
2013-10-05 12:58:00,57.4,52.3,29.80,South,180,2.1,3.5,83,0.00,CLR,CLR,0.20,WeatherDisplay:10.37,2013-10-05 17:58:00,
2013-10-05 13:03:00,57.0,51.9,29.80,SSE,158,3.5,3.5,83,0.00,CLR,CLR,0.20,WeatherDisplay:10.37,2013-10-05 18:03:00,
2013-10-05 13:08:00,57.4,52.6,29.80,SSE,158,2.2,3.5,84,0.00,CLR,CLR,0.20,WeatherDisplay:10.37,2013-10-05 18:08:00,
2013-10-05 13:13:00,57.7,52.9,29.80,ESE,112,3.6,4.6,84,0.00,CLR,CLR,0.20,WeatherDisplay:10.37,2013-10-05 18:13:00,
2013-10-05 13:18:00,58.3,53.5,29.79,ESE,112,3.9,4.6,84,0.00,CLR,CLR,0.20,WeatherDisplay:10.37,2013-10-05 18:18:00,
2013-10-05 13:23:00,58.8,53.7,29.79,East,90,3.5,4.6,83,0.00,CLR,CLR,0.20,WeatherDisplay:10.37,2013-10-05 18:23:00,
2013-10-05 13:28:00,59.0,53.5,29.79,ESE,112,5.6,8.1,82,0.00,CLR,CLR,0.20,WeatherDisplay:10.37,2013-10-05 18:28:00,
2013-10-05 13:33:00,58.8,53.0,29.78,NE,45,3.7,4.6,81,0.00,CLR,CLR,0.20,WeatherDisplay:10.37,2013-10-05 18:33:00,
2013-10-05 13:38:00,58.8,53.0,29.78,ESE,112,5.1,5.8,81,0.00,CLR,CLR,0.20,WeatherDisplay:10.37,2013-10-05 18:38:00,
2013-10-05 13:43:00,58.6,52.8,29.77,NE,45,4.1,6.9,81,0.00,CLR,CLR,0.20,WeatherDisplay:10.37,2013-10-05 18:43:00,
2013-10-05 13:48:00,58.3,52.5,29.78,East,90,6.7,8.3,81,0.00,CLR,CLR,0.20,WeatherDisplay:10.37,2013-10-05 18:48:00,
2013-10-05 13:53:00,57.9,52.1,29.77,ESE,112,5.4,9.2,81,0.00,CLR,CLR,0.20,WeatherDisplay:10.37,2013-10-05 18:53:00,
2013-10-05 13:58:00,57.6,52.1,29.77,ENE,68,6.7,10.4,82,0.00,CLR,CLR,0.20,WeatherDisplay:10.37,2013-10-05 18:58:00,
2013-10-05 14:03:00,57.4,52.3,29.77,ENE,68,3.9,6.9,83,0.00,CLR,CLR,0.20,WeatherDisplay:10.37,2013-10-05 19:03:00,
2013-10-05 14:08:00,57.7,52.6,29.77,ENE,68,4.8,10.4,83,0.00,CLR,CLR,0.20,WeatherDisplay:10.37,2013-10-05 19:08:00,
2013-10-05 14:13:00,57.9,52.8,29.77,East,90,6.3,8.1,83,0.00,CLR,CLR,0.20,WeatherDisplay:10.37,2013-10-05 19:13:00,
2013-10-05 14:18:00,58.6,53.5,29.76,NE,45,5.2,8.1,83,0.00,CLR,CLR,0.20,WeatherDisplay:10.37,2013-10-05 19:18:00,
2013-10-05 14:23:00,58.3,52.8,29.76,ENE,68,6.1,10.4,82,0.00,CLR,CLR,0.20,WeatherDisplay:10.37,2013-10-05 19:23:00,
2013-10-05 14:28:00,57.9,52.8,29.76,ESE,112,7.8,9.2,83,0.00,CLR,CLR,0.20,WeatherDisplay:10.37,2013-10-05 19:28:00,
2013-10-05 14:33:00,57.6,52.4,29.77,ESE,112,7.2,9.2,83,0.00,CLR,CLR,0.20,WeatherDisplay:10.37,2013-10-05 19:33:00,
2013-10-05 14:38:00,57.0,52.2,29.77,East,90,2.5,3.5,84,0.00,CLR,CLR,0.20,WeatherDisplay:10.37,2013-10-05 19:38:00,
2013-10-05 14:43:00,57.0,52.6,29.77,ESE,112,5.9,8.1,85,0.00,CLR,CLR,0.20,WeatherDisplay:10.37,2013-10-05 19:43:00,
2013-10-05 14:48:00,56.8,52.4,29.77,East,90,7.3,9.4,85,0.00,CLR,CLR,0.20,WeatherDisplay:10.37,2013-10-05 19:48:00,
2013-10-05 14:53:00,56.5,52.3,29.75,East,90,11.7,13.8,86,0.00,CLR,CLR,0.20,WeatherDisplay:10.37,2013-10-05 19:53:00,
2013-10-05 14:58:00,56.1,52.6,29.75,East,90,14.8,19.6,88,0.02,RA,RA,0.22,WeatherDisplay:10.37,2013-10-05 19:58:00,
2013-10-05 15:03:00,55.9,52.7,29.76,ESE,112,21.6,40.3,89,0.04,RA,RA,0.24,WeatherDisplay:10.37,2013-10-05 20:03:00,
2013-10-05 15:08:00,55.8,52.6,29.77,ESE,112,11.3,14.1,89,0.08,RA,RA,0.28,WeatherDisplay:10.37,2013-10-05 20:08:00,
2013-10-05 15:13:00,55.6,52.7,29.76,ESE,112,8.0,9.2,90,0.08,RA,RA,0.28,WeatherDisplay:10.37,2013-10-05 20:13:00,
2013-10-05 15:18:00,55.6,52.7,29.77,ENE,68,5.7,6.9,90,0.10,RA,RA,0.30,WeatherDisplay:10.37,2013-10-05 20:18:00,
2013-10-05 15:23:00,55.6,52.7,29.77,ENE,68,3.0,8.1,90,0.10,RA,RA,0.30,WeatherDisplay:10.37,2013-10-05 20:23:00,
2013-10-05 15:28:00,55.6,52.7,29.76,ESE,112,2.6,3.8,90,0.12,RA,RA,0.32,WeatherDisplay:10.37,2013-10-05 20:28:00,
2013-10-05 15:33:00,55.8,52.9,29.77,ENE,68,3.7,4.6,90,0.12,RA,RA,0.32,WeatherDisplay:10.37,2013-10-05 20:33:00,
2013-10-05 15:38:00,55.9,53.0,29.76,NNE,22,2.4,3.5,90,0.12,,,0.32,WeatherDisplay:10.37,2013-10-05 20:38:00,
2013-10-05 15:43:00,56.1,53.2,29.74,NE,45,3.8,6.9,90,0.12,CLR,CLR,0.32,WeatherDisplay:10.37,2013-10-05 20:43:00,
2013-10-05 15:48:00,56.3,53.4,29.74,ENE,68,2.5,5.8,90,0.12,CLR,CLR,0.32,WeatherDisplay:10.37,2013-10-05 20:48:00,
2013-10-05 15:54:00,56.1,53.2,29.74,NE,45,3.8,6.9,90,0.12,CLR,CLR,0.32,WeatherDisplay:10.37,2013-10-05 20:54:00,
2013-10-05 15:59:00,56.1,53.2,29.74,SE,135,4.7,8.1,90,0.10,CLR,CLR,0.32,WeatherDisplay:10.37,2013-10-05 20:59:00,
2013-10-05 16:04:00,56.1,53.2,29.74,ENE,68,9.3,11.5,90,0.08,CLR,CLR,0.32,WeatherDisplay:10.37,2013-10-05 21:04:00,
2013-10-05 16:09:00,56.5,53.6,29.74,ESE,112,6.7,6.7,90,0.04,CLR,CLR,0.32,WeatherDisplay:10.37,2013-10-05 21:09:00,
2013-10-05 16:14:00,56.8,53.9,29.75,ESE,112,6.3,9.2,90,0.04,CLR,CLR,0.32,WeatherDisplay:10.37,2013-10-05 21:14:00,
2013-10-05 16:19:00,57.0,54.1,29.76,ESE,112,3.7,3.7,90,0.02,CLR,CLR,0.32,WeatherDisplay:10.37,2013-10-05 21:19:00,
2013-10-05 16:24:00,56.8,53.6,29.76,South,180,3.5,5.8,89,0.02,CLR,CLR,0.32,WeatherDisplay:10.37,2013-10-05 21:24:00,
2013-10-05 16:29:00,56.5,53.3,29.76,SE,135,0.0,1.3,89,0.00,CLR,CLR,0.32,WeatherDisplay:10.37,2013-10-05 21:29:00,
2013-10-05 16:34:00,56.5,53.3,29.77,SSE,158,1.3,2.3,89,0.00,CLR,CLR,0.32,WeatherDisplay:10.37,2013-10-05 21:34:00,
2013-10-05 16:39:00,56.3,53.1,29.77,SSW,202,4.9,6.9,89,0.00,CLR,CLR,0.32,WeatherDisplay:10.37,2013-10-05 21:39:00,
2013-10-05 16:44:00,56.1,53.2,29.77,SE,135,8.1,10.4,90,0.00,CLR,CLR,0.32,WeatherDisplay:10.37,2013-10-05 21:44:00,
2013-10-05 16:49:00,55.8,52.6,29.77,ESE,112,8.7,11.5,89,0.00,CLR,CLR,0.32,WeatherDisplay:10.37,2013-10-05 21:49:00,
2013-10-05 16:54:00,55.2,51.7,29.77,South,180,5.4,9.2,88,0.00,CLR,CLR,0.32,WeatherDisplay:10.37,2013-10-05 21:54:00,
2013-10-05 16:59:00,54.7,50.9,29.76,SSW,202,6.8,8.1,87,0.00,CLR,CLR,0.32,WeatherDisplay:10.37,2013-10-05 21:59:00,
2013-10-05 17:04:00,54.3,50.2,29.77,SSW,202,5.9,6.5,86,0.00,CLR,CLR,0.32,WeatherDisplay:10.37,2013-10-05 22:04:00,
2013-10-05 17:09:00,54.0,49.2,29.76,SSW,202,2.4,5.8,84,0.00,CLR,CLR,0.32,WeatherDisplay:10.37,2013-10-05 22:09:00,
2013-10-05 17:14:00,53.8,49.1,29.75,WSW,248,1.3,4.7,84,0.00,CLR,CLR,0.32,WeatherDisplay:10.37,2013-10-05 22:14:00,
2013-10-05 17:19:00,53.8,49.1,29.75,South,180,2.0,3.5,84,0.00,CLR,CLR,0.32,WeatherDisplay:10.37,2013-10-05 22:19:00,
2013-10-05 17:24:00,53.8,49.1,29.75,SW,225,0.3,2.3,84,0.00,CLR,CLR,0.32,WeatherDisplay:10.37,2013-10-05 22:24:00,
2013-10-05 17:29:00,53.4,48.4,29.75,SSW,202,0.0,1.2,83,0.00,CLR,CLR,0.32,WeatherDisplay:10.37,2013-10-05 22:29:00,
2013-10-05 17:34:00,53.4,48.4,29.75,South,180,1.3,2.3,83,0.00,CLR,CLR,0.32,WeatherDisplay:10.37,2013-10-05 22:34:00,
2013-10-05 17:39:00,53.4,48.4,29.76,ESE,112,1.0,3.5,83,0.00,CLR,CLR,0.32,WeatherDisplay:10.37,2013-10-05 22:39:00,
2013-10-05 17:44:00,52.9,47.5,29.77,South,180,3.8,4.6,82,0.00,CLR,CLR,0.32,WeatherDisplay:10.37,2013-10-05 22:44:00,
2013-10-05 17:49:00,52.7,47.4,29.77,SSE,158,3.0,6.9,82,0.00,CLR,CLR,0.32,WeatherDisplay:10.37,2013-10-05 22:49:00,
2013-10-05 17:54:00,52.3,47.0,29.77,SE,135,3.4,8.1,82,0.00,CLR,CLR,0.32,WeatherDisplay:10.37,2013-10-05 22:54:00,
2013-10-05 17:59:00,52.0,46.7,29.77,South,180,2.7,4.6,82,0.00,CLR,CLR,0.32,WeatherDisplay:10.37,2013-10-05 22:59:00,
2013-10-05 18:04:00,51.6,46.3,29.78,SSW,202,10.0,11.5,82,0.00,CLR,CLR,0.32,WeatherDisplay:10.37,2013-10-05 23:04:00,
2013-10-05 18:09:00,51.1,45.5,29.78,South,180,8.4,9.2,81,0.00,CLR,CLR,0.32,WeatherDisplay:10.37,2013-10-05 23:09:00,
2013-10-05 18:14:00,50.7,44.8,29.78,SSW,202,11.0,16.1,80,0.00,CLR,CLR,0.32,WeatherDisplay:10.37,2013-10-05 23:14:00,
2013-10-05 18:19:00,50.5,44.3,29.77,West,270,6.8,9.2,79,0.00,CLR,CLR,0.32,WeatherDisplay:10.37,2013-10-05 23:19:00,
2013-10-05 18:24:00,50.2,43.9,29.78,South,180,6.0,11.5,79,0.00,CLR,CLR,0.32,WeatherDisplay:10.37,2013-10-05 23:24:00,
2013-10-05 18:29:00,49.8,43.6,29.78,SSW,202,7.5,7.5,79,0.00,CLR,CLR,0.32,WeatherDisplay:10.37,2013-10-05 23:29:00,
2013-10-05 18:34:00,49.6,43.1,29.77,South,180,6.1,13.8,78,0.00,CLR,CLR,0.32,WeatherDisplay:10.37,2013-10-05 23:34:00,
2013-10-05 18:39:00,49.6,43.4,29.77,SSW,202,9.0,12.7,79,0.00,CLR,CLR,0.32,WeatherDisplay:10.37,2013-10-05 23:39:00,
2013-10-05 18:44:00,49.3,43.4,29.77,SSE,158,4.8,10.4,80,0.00,CLR,CLR,0.32,WeatherDisplay:10.37,2013-10-05 23:44:00,
2013-10-05 18:49:00,49.1,43.2,29.77,ESE,112,2.1,3.6,80,0.00,CLR,CLR,0.32,WeatherDisplay:10.37,2013-10-05 23:49:00,
2013-10-05 18:54:00,48.9,43.0,29.77,SSE,158,3.2,4.6,80,0.00,CLR,CLR,0.32,WeatherDisplay:10.37,2013-10-05 23:54:00,
2013-10-05 18:59:00,48.9,43.3,29.77,SSE,158,2.1,3.8,81,0.00,CLR,CLR,0.32,WeatherDisplay:10.37,2013-10-05 23:59:00,
2013-10-05 19:04:00,48.7,43.2,29.77,ESE,112,2.7,3.5,81,0.02,RA,RA,0.34,WeatherDisplay:10.37,2013-10-06 00:04:00,
2013-10-05 19:09:00,48.6,43.0,29.76,SSW,202,0.4,2.3,81,0.02,RA,RA,0.34,WeatherDisplay:10.37,2013-10-06 00:09:00,
2013-10-05 19:14:00,48.4,43.1,29.74,NW,315,4.2,5.8,82,0.04,RA,RA,0.36,WeatherDisplay:10.37,2013-10-06 00:14:00,
2013-10-05 19:19:00,48.0,43.1,29.74,North,0,2.9,5.8,83,0.04,RA,RA,0.36,WeatherDisplay:10.37,2013-10-06 00:19:00,
2013-10-05 19:24:00,47.7,43.1,29.74,NE,45,2.0,3.5,84,0.04,CLR,CLR,0.36,WeatherDisplay:10.37,2013-10-06 00:24:00,
2013-10-05 19:29:00,47.3,42.7,29.74,NE,45,3.2,3.2,84,0.04,CLR,CLR,0.36,WeatherDisplay:10.37,2013-10-06 00:29:00,
2013-10-05 19:34:00,47.1,42.8,29.74,NE,45,2.9,4.6,85,0.04,CLR,CLR,0.36,WeatherDisplay:10.37,2013-10-06 00:34:00,
2013-10-05 19:39:00,47.1,42.8,29.74,North,0,2.6,3.5,85,0.04,CLR,CLR,0.36,WeatherDisplay:10.37,2013-10-06 00:39:00,
2013-10-05 19:44:00,46.9,43.0,29.74,North,0,3.8,5.4,86,0.04,CLR,CLR,0.36,WeatherDisplay:10.37,2013-10-06 00:44:00,
2013-10-05 19:49:00,46.9,43.0,29.73,NNW,338,5.3,8.1,86,0.04,CLR,CLR,0.36,WeatherDisplay:10.37,2013-10-06 00:49:00,
2013-10-05 19:54:00,46.9,43.0,29.74,West,270,1.4,3.5,86,0.04,CLR,CLR,0.36,WeatherDisplay:10.37,2013-10-06 00:54:00,
2013-10-05 19:59:00,46.9,43.3,29.74,NNW,338,0.7,2.3,87,0.04,CLR,CLR,0.36,WeatherDisplay:10.37,2013-10-06 00:59:00,
2013-10-05 20:04:00,46.9,43.3,29.74,WSW,248,0.0,2.3,87,0.02,CLR,CLR,0.36,WeatherDisplay:10.37,2013-10-06 01:04:00,
2013-10-05 20:09:00,46.9,43.3,29.75,WSW,248,3.2,3.2,87,0.02,CLR,CLR,0.36,WeatherDisplay:10.37,2013-10-06 01:09:00,
2013-10-05 20:14:00,46.9,43.3,29.75,SSW,202,4.3,5.8,87,0.00,CLR,CLR,0.36,WeatherDisplay:10.37,2013-10-06 01:14:00,
2013-10-05 20:19:00,46.9,43.3,29.76,West,270,5.1,9.2,87,0.00,CLR,CLR,0.36,WeatherDisplay:10.37,2013-10-06 01:19:00,
2013-10-05 20:24:00,46.8,43.4,29.77,SW,225,2.2,5.8,88,0.00,CLR,CLR,0.36,WeatherDisplay:10.37,2013-10-06 01:24:00,
2013-10-05 20:29:00,46.8,43.4,29.77,SSW,202,1.6,3.5,88,0.00,CLR,CLR,0.36,WeatherDisplay:10.37,2013-10-06 01:29:00,
2013-10-05 20:34:00,46.6,43.2,29.77,WSW,248,1.8,5.8,88,0.00,CLR,CLR,0.36,WeatherDisplay:10.37,2013-10-06 01:34:00,
2013-10-05 20:39:00,46.6,43.2,29.77,South,180,0.0,0.0,88,0.00,CLR,CLR,0.36,WeatherDisplay:10.37,2013-10-06 01:39:00,
2013-10-05 20:44:00,46.6,43.2,29.77,ESE,112,0.0,0.0,88,0.00,CLR,CLR,0.36,WeatherDisplay:10.37,2013-10-06 01:44:00,
2013-10-05 20:49:00,46.6,43.2,29.77,SSE,158,0.3,2.3,88,0.00,CLR,CLR,0.36,WeatherDisplay:10.37,2013-10-06 01:49:00,
2013-10-05 20:54:00,46.6,43.2,29.78,SSE,158,0.9,2.3,88,0.00,CLR,CLR,0.36,WeatherDisplay:10.37,2013-10-06 01:54:00,
2013-10-05 20:59:00,46.6,43.5,29.78,SE,135,2.6,4.6,89,0.00,CLR,CLR,0.36,WeatherDisplay:10.37,2013-10-06 01:59:00,
2013-10-05 21:04:00,46.6,43.5,29.78,SSE,158,1.5,3.5,89,0.00,CLR,CLR,0.36,WeatherDisplay:10.37,2013-10-06 02:04:00,
2013-10-05 21:09:00,46.8,43.7,29.77,SSE,158,0.0,0.0,89,0.00,CLR,CLR,0.36,WeatherDisplay:10.37,2013-10-06 02:09:00,
2013-10-05 21:14:00,46.8,43.7,29.77,South,180,0.0,0.0,89,0.00,CLR,CLR,0.36,WeatherDisplay:10.37,2013-10-06 02:14:00,
2013-10-05 21:19:00,46.6,43.5,29.77,West,270,0.1,1.2,89,0.00,CLR,CLR,0.36,WeatherDisplay:10.37,2013-10-06 02:19:00,
2013-10-05 21:24:00,46.6,43.8,29.77,SW,225,0.0,0.0,90,0.00,CLR,CLR,0.36,WeatherDisplay:10.37,2013-10-06 02:24:00,
2013-10-05 21:29:00,46.4,43.6,29.77,West,270,1.7,3.5,90,0.00,CLR,CLR,0.36,WeatherDisplay:10.37,2013-10-06 02:29:00,
2013-10-05 21:34:00,46.2,43.2,29.77,West,270,0.0,0.0,89,0.00,CLR,CLR,0.36,WeatherDisplay:10.37,2013-10-06 02:34:00,
2013-10-05 21:39:00,46.0,43.3,29.76,NW,315,0.1,2.5,90,0.00,CLR,CLR,0.36,WeatherDisplay:10.37,2013-10-06 02:39:00,
2013-10-05 21:44:00,45.7,42.9,29.76,NNW,338,0.0,0.0,90,0.00,CLR,CLR,0.36,WeatherDisplay:10.37,2013-10-06 02:44:00,
2013-10-05 21:49:00,45.7,42.9,29.76,NNW,338,0.0,0.0,90,0.00,CLR,CLR,0.36,WeatherDisplay:10.37,2013-10-06 02:49:00,
2013-10-05 21:54:00,45.7,42.9,29.76,NW,315,0.0,1.2,90,0.00,CLR,CLR,0.36,WeatherDisplay:10.37,2013-10-06 02:54:00,
2013-10-05 21:59:00,45.7,42.9,29.76,NNW,338,1.3,1.3,90,0.00,CLR,CLR,0.36,WeatherDisplay:10.37,2013-10-06 02:59:00,
2013-10-05 22:04:00,45.7,42.9,29.76,NW,315,0.4,2.3,90,0.00,CLR,CLR,0.36,WeatherDisplay:10.37,2013-10-06 03:04:00,
2013-10-05 22:09:00,45.9,43.1,29.76,NW,315,0.0,0.0,90,0.00,CLR,CLR,0.36,WeatherDisplay:10.37,2013-10-06 03:09:00,
2013-10-05 22:14:00,46.0,43.6,29.76,NNW,338,0.2,1.2,91,0.00,CLR,CLR,0.36,WeatherDisplay:10.37,2013-10-06 03:14:00,
2013-10-05 22:19:00,46.0,43.6,29.77,NNE,22,0.0,0.0,91,0.00,CLR,CLR,0.36,WeatherDisplay:10.37,2013-10-06 03:19:00,
2013-10-05 22:24:00,46.2,43.7,29.76,NW,315,1.0,2.3,91,0.00,CLR,CLR,0.36,WeatherDisplay:10.37,2013-10-06 03:24:00,
2013-10-05 22:29:00,46.6,44.1,29.77,WSW,248,0.0,0.0,91,0.00,CLR,CLR,0.36,WeatherDisplay:10.37,2013-10-06 03:29:00,
2013-10-05 22:34:00,46.6,44.1,29.76,WSW,248,0.0,0.0,91,0.00,CLR,CLR,0.36,WeatherDisplay:10.37,2013-10-06 03:34:00,
2013-10-05 22:39:00,46.9,44.4,29.77,WSW,248,0.0,0.0,91,0.00,CLR,CLR,0.36,WeatherDisplay:10.37,2013-10-06 03:39:00,
2013-10-05 22:44:00,46.9,44.4,29.76,WSW,248,0.0,0.0,91,0.00,CLR,CLR,0.36,WeatherDisplay:10.37,2013-10-06 03:44:00,
2013-10-05 22:49:00,47.1,44.6,29.76,WSW,248,0.0,0.0,91,0.00,CLR,CLR,0.36,WeatherDisplay:10.37,2013-10-06 03:49:00,
2013-10-05 22:54:00,47.1,44.6,29.76,WSW,248,0.0,0.0,91,0.00,CLR,CLR,0.36,WeatherDisplay:10.37,2013-10-06 03:54:00,
2013-10-05 22:59:00,47.3,44.8,29.76,WSW,248,0.0,0.0,91,0.00,CLR,CLR,0.36,WeatherDisplay:10.37,2013-10-06 03:59:00,
2013-10-05 23:01:00,47.3,44.8,29.76,WSW,248,0.0,0.0,91,0.00,CLR,CLR,0.00,WeatherDisplay:10.37,2013-10-06 04:01:00,
2013-10-05 23:02:00,47.5,45.0,29.76,SE,135,0.0,0.0,91,0.00,CLR,CLR,0.00,WeatherDisplay:10.37,2013-10-06 04:02:00,
2013-10-05 23:07:00,47.5,45.0,29.76,South,180,0.0,0.0,91,0.00,CLR,CLR,0.00,WeatherDisplay:10.37,2013-10-06 04:07:00,
2013-10-05 23:12:00,47.5,45.0,29.75,SW,225,0.6,2.3,91,0.00,CLR,CLR,0.00,WeatherDisplay:10.37,2013-10-06 04:12:00,
2013-10-05 23:17:00,47.5,45.0,29.75,South,180,0.0,0.0,91,0.00,CLR,CLR,0.00,WeatherDisplay:10.37,2013-10-06 04:17:00,
2013-10-05 23:22:00,47.5,45.0,29.76,SE,135,0.0,0.0,91,0.00,CLR,CLR,0.00,WeatherDisplay:10.37,2013-10-06 04:22:00,
2013-10-05 23:27:00,47.7,45.2,29.76,SSW,202,0.0,0.0,91,0.00,CLR,CLR,0.00,WeatherDisplay:10.37,2013-10-06 04:27:00,
2013-10-05 23:32:00,47.7,45.2,29.76,SSW,202,0.0,0.0,91,0.00,CLR,CLR,0.00,WeatherDisplay:10.37,2013-10-06 04:32:00,
2013-10-05 23:37:00,47.7,45.2,29.76,SW,225,0.0,0.0,91,0.00,CLR,CLR,0.00,WeatherDisplay:10.37,2013-10-06 04:37:00,
2013-10-05 23:42:00,47.7,45.2,29.76,West,270,0.0,0.0,91,0.00,CLR,CLR,0.00,WeatherDisplay:10.37,2013-10-06 04:42:00,
2013-10-05 23:47:00,47.5,45.0,29.75,West,270,0.0,0.0,91,0.00,CLR,CLR,0.00,WeatherDisplay:10.37,2013-10-06 04:47:00,
2013-10-05 23:52:00,47.5,45.0,29.76,WNW,292,0.0,1.2,91,0.00,CLR,CLR,0.00,WeatherDisplay:10.37,2013-10-06 04:52:00,
2013-10-05 23:57:00,47.5,45.0,29.75,West,270,0.0,0.0,91,0.00,CLR,CLR,0.00,WeatherDisplay:10.37,2013-10-06 04:57:00,